Cut Bank, MT

8:34 PM MDT on May 23, 2017 (GMT -0600)
Cut Bank Municipal

Weather History for KCTB - December, 2013

Change the Weather History Date:

Tuesday, December 3, 2013

  Actual Average Record
Temperature  
Mean Temperature 2 °F 24 °F  
Max Temperature 5 °F 34 °F 59 °F (1987)
Min Temperature -1 °F 14 °F -28 °F (1972)
Degree Days  
Heating Degree Days 63 41  
Month to date heating degree days 134 122  
Since 1 July heating degree days 2223 2385  
Cooling Degree Days 0 0  
Month to date cooling degree days 0 0  
Year to date cooling degree days 226 162  
Moisture  
Dew Point -3 °F    
Average Humidity 80    
Maximum Humidity 87    
Minimum Humidity 72    
Precipitation  
Precipitation T in 0.00 in 0.21 in (1941)
Month to date precipitation 0.02 0.02  
Year to date precipitation 14.43 10.70  
Snow  
Snow 0.00 in - - ()
Snow Depth 3.00 in    
Sea Level Pressure  
Sea Level Pressure 30.25 in    
Wind  
Wind Speed 23 mph (NNW)    
Max Wind Speed 35 mph    
Max Gust Speed 43 mph    
Visibility 3 miles    
Events Snow    
T = Trace of Precipitation, MM = Missing Value Source: NWS Daily Summary

Daily Weather History Graph

Daily Weather History Graph

Search for Another Location

Airport or City:

Trip Planner

Search our weather history database for the weather conditions in past years. The results will help you decide how hot, cold, wet, or windy it might be!

Date:

Astronomy

Dec. 03, 2013 Rise Set
Actual Time 8:03 AM MST 4:35 PM MST
Civil Twilight 7:27 AM MST 5:11 PM MST
Nautical Twilight 6:47 AM MST 5:51 PM MST
Astronomical Twilight 6:09 AM MST 6:29 PM MST
Moon 8:34 AM MST (12/3) 5:45 PM MST (12/3)
Length of Visible Light 9h 44m
Length of Day
8h 31m
New Moon, 1% of the Moon is Illuminated
Dec 3
New Moon
Dec 9
First Quarter
Dec 17
Full
Dec 25
Last Quarter
Jan 1
New

Hourly Weather History & Observations

Time (MST) Temp. Windchill Dew Point Humidity Pressure Visibility Wind Dir Wind Speed Gust Speed Precip Events Conditions
12:03 AM 5.0 °F -18.3 °F -0.0 °F 80% 30.02 in 2.5 mi NNW 27.6 mph 34.5 mph 0.00 in Snow Light Snow
12:33 AM 5.0 °F -18.3 °F -0.0 °F 80% 30.02 in 1.8 mi NNW 27.6 mph 36.8 mph 0.00 in Snow Light Snow
12:56 AM 5.0 °F -17.5 °F -0.0 °F 80% 30.24 in 1.5 mi NNW 25.3 mph 35.7 mph 0.00 in Snow Light Snow
1:56 AM 3.9 °F -20.5 °F -0.0 °F 84% 30.27 in 1.5 mi NNW 29.9 mph 36.8 mph 0.00 in Snow Light Snow
2:56 AM 3.9 °F -20.5 °F -0.9 °F 80% 30.28 in 1.8 mi NNW 29.9 mph 35.7 mph 0.00 in Snow Light Snow
3:04 AM 3.9 °F -20.9 °F -0.9 °F 80% 30.06 in 2.0 mi NNW 31.1 mph - 0.00 in Snow Light Snow
3:56 AM 3.9 °F -20.5 °F -0.9 °F 80% 30.30 in 2.0 mi NNW 29.9 mph 39.1 mph 0.00 in Snow Light Snow
4:11 AM 3.9 °F -20.5 °F -0.9 °F 80% 30.07 in 2.0 mi NNW 29.9 mph 38.0 mph 0.00 in Snow Light Snow
4:20 AM 3.0 °F -20.2 °F -0.9 °F 84% 30.07 in 1.8 mi NNW 25.3 mph 36.8 mph 0.00 in Snow Light Snow
4:36 AM 3.0 °F -21.0 °F -0.9 °F 84% 30.07 in 2.0 mi North 27.6 mph 42.6 mph 0.00 in Snow Light Snow
4:56 AM 3.0 °F -20.6 °F -2.0 °F 80% 30.31 in 2.5 mi NNW 26.5 mph 39.1 mph 0.00 in Snow Light Snow
5:19 AM 3.0 °F -21.7 °F -2.0 °F 80% 30.09 in 1.8 mi North 29.9 mph 40.3 mph 0.00 in Snow Light Snow
5:22 AM 3.0 °F -21.7 °F -2.0 °F 80% 30.09 in 2.0 mi North 29.9 mph 35.7 mph 0.00 in Snow Light Snow
5:31 AM 3.0 °F -21.4 °F -2.0 °F 80% 30.10 in 1.8 mi North 28.8 mph 36.8 mph 0.00 in Snow Light Snow
5:56 AM 3.0 °F -20.2 °F -2.0 °F 80% 30.34 in 1.5 mi North 25.3 mph 39.1 mph 0.00 in Snow Light Snow
6:56 AM 1.9 °F -22.8 °F -2.0 °F 83% 30.37 in 1.5 mi North 28.8 mph - 0.00 in Snow Light Snow
7:18 AM 3.0 °F -19.3 °F -2.0 °F 80% 30.14 in 2.0 mi North 23.0 mph 34.5 mph 0.00 in Snow Light Snow
7:28 AM 1.9 °F -21.2 °F -2.0 °F 83% 30.14 in 1.5 mi North 24.2 mph - 0.00 in Snow Light Snow
7:56 AM 1.9 °F -21.2 °F -2.0 °F 83% 30.39 in 1.5 mi North 24.2 mph - 0.00 in Snow Light Snow
8:54 AM 1.4 °F -21.4 °F -2.2 °F 85% 30.16 in 2.0 mi North 23.0 mph 34.5 mph 0.00 in Snow Light Snow
8:56 AM 1.9 °F -21.2 °F -2.9 °F 80% 30.40 in 2.0 mi North 24.2 mph 34.5 mph 0.00 in Snow Light Snow
9:21 AM 1.9 °F -22.4 °F -4.0 °F 76% 30.17 in 3.0 mi North 27.6 mph 35.7 mph 0.00 in Snow Light Snow
9:56 AM 1.9 °F -23.6 °F -2.9 °F 80% 30.41 in 3.0 mi North 31.1 mph 38.0 mph 0.00 in   Haze
10:16 AM 3.0 °F -21.7 °F -2.9 °F 76% 30.18 in 2.5 mi North 29.9 mph 38.0 mph 0.00 in   Overcast
10:28 AM 3.0 °F -21.4 °F -2.9 °F 76% 30.18 in 3.0 mi North 28.8 mph 36.8 mph 0.00 in   Haze
10:51 AM 1.4 °F -24.6 °F -4.0 °F 78% 30.19 in 2.5 mi North 32.2 mph 39.1 mph 0.00 in   Haze
10:56 AM 1.9 °F -22.4 °F -4.0 °F 76% 30.43 in 3.0 mi North 27.6 mph 39.1 mph 0.00 in   Haze
11:56 AM 3.0 °F -20.6 °F -4.0 °F 73% 30.42 in 3.0 mi North 26.5 mph 34.5 mph N/A   Haze
12:18 PM 3.0 °F -19.3 °F -4.0 °F 73% 30.18 in 2.5 mi North 23.0 mph - 0.00 in   Overcast
12:34 PM 3.0 °F -21.7 °F -4.0 °F 73% 30.18 in 3.0 mi North 29.9 mph 34.5 mph 0.00 in   Haze
12:56 PM 3.0 °F -20.6 °F -4.0 °F 73% 30.42 in 4.0 mi North 26.5 mph 33.4 mph 0.00 in   Haze
1:14 PM 1.9 °F -20.2 °F -4.0 °F 76% 30.17 in 1.8 mi North 21.9 mph - 0.00 in Snow Light Snow
1:56 PM 1.9 °F -21.2 °F -4.0 °F 76% 30.43 in 1.2 mi North 24.2 mph - 0.00 in Snow Light Snow
2:15 PM 1.9 °F -19.8 °F -4.0 °F 76% 30.18 in 0.8 mi NNW 20.7 mph 27.6 mph 0.00 in Snow Light Snow
2:25 PM 1.9 °F -19.8 °F -4.0 °F 76% 30.18 in 0.8 mi North 20.7 mph - 0.00 in Snow Light Snow
2:42 PM 1.9 °F -20.2 °F -4.0 °F 76% 30.18 in 1.0 mi North 21.9 mph - 0.00 in Snow Light Snow
2:56 PM 1.9 °F -19.2 °F -4.0 °F 76% 30.44 in 1.5 mi NNW 19.6 mph 24.2 mph 0.00 in Snow Light Snow
3:09 PM 1.0 °F -20.9 °F -5.1 °F 75% 30.19 in 2.0 mi NNW 20.7 mph - 0.00 in   Haze
3:30 PM 1.0 °F -19.3 °F -5.1 °F 75% 30.19 in 3.0 mi NNW 17.3 mph - 0.00 in   Haze
3:41 PM 1.0 °F -20.9 °F -6.0 °F 72% 30.19 in 4.0 mi NNW 20.7 mph - 0.00 in   Haze
3:52 PM 1.4 °F -20.5 °F -5.8 °F 72% 30.19 in 2.0 mi NNW 20.7 mph - 0.00 in Snow Light Snow
3:56 PM -0.0 °F -22.9 °F -6.0 °F 76% 30.44 in 1.8 mi NNW 21.9 mph - 0.00 in Snow Light Snow
4:43 PM -0.0 °F -21.8 °F -6.0 °F 76% 30.19 in 2.5 mi NNW 19.6 mph - 0.00 in   Haze
4:56 PM -0.0 °F -19.4 °F -6.0 °F 76% 30.45 in 7.0 mi NNW 15.0 mph - 0.00 in   Overcast
5:04 PM -0.9 °F -20.6 °F -6.0 °F 79% 30.20 in 10.0 mi NNW 15.0 mph - N/A   Overcast
5:56 PM 1.0 °F -17.3 °F -5.1 °F 75% 30.45 in 7.0 mi North 13.8 mph - 0.00 in   Overcast
6:42 PM 1.9 °F -17.5 °F -4.0 °F 76% 30.20 in 2.0 mi NNW 16.1 mph - 0.00 in Snow Light Snow
6:45 PM 1.9 °F -16.2 °F -4.0 °F 76% 30.20 in 1.8 mi North 13.8 mph - 0.00 in Snow Light Snow
6:56 PM 1.0 °F -18.7 °F -4.0 °F 79% 30.46 in 2.0 mi North 16.1 mph - 0.00 in Snow Light Snow
7:16 PM 1.0 °F -18.7 °F -4.0 °F 79% 30.20 in 2.5 mi NNW 16.1 mph - 0.00 in Snow Light Snow
7:30 PM 1.0 °F -18.7 °F -5.1 °F 75% 30.20 in 4.0 mi NNW 16.1 mph - 0.00 in Snow Light Snow
7:56 PM -0.0 °F -18.7 °F -5.1 °F 79% 30.47 in 5.0 mi NNW 13.8 mph - 0.00 in   Haze
8:56 PM 1.0 °F -18.7 °F -5.1 °F 75% 30.45 in 10.0 mi NNW 16.1 mph - N/A   Overcast
9:49 PM 1.9 °F -18.7 °F -2.9 °F 80% 30.19 in 2.5 mi NNW 18.4 mph 25.3 mph 0.00 in Snow Light Snow
9:56 PM 1.9 °F -18.7 °F -2.9 °F 80% 30.45 in 2.0 mi NNW 18.4 mph 25.3 mph 0.00 in Snow Light Snow
10:21 PM 1.9 °F -16.9 °F -2.9 °F 80% 30.20 in 2.0 mi NW 15.0 mph - 0.00 in Snow Light Snow
10:47 PM 1.9 °F -18.1 °F -2.9 °F 80% 30.20 in 3.0 mi NNW 17.3 mph - 0.00 in   Haze
10:56 PM 1.9 °F -17.5 °F -2.9 °F 80% 30.46 in 3.0 mi NNW 16.1 mph - 0.00 in Snow Light Snow
11:05 PM 1.9 °F -18.1 °F -2.9 °F 80% 30.21 in 2.5 mi NNW 17.3 mph 25.3 mph 0.00 in Snow Light Snow
11:16 PM 1.9 °F -18.1 °F -2.9 °F 80% 30.21 in 2.5 mi NNW 17.3 mph - 0.00 in Snow Light Snow
11:56 PM 1.9 °F -19.2 °F -4.0 °F 76% 30.45 in 2.5 mi NNW 19.6 mph - 0.00 in Snow Light Snow